EW6239 Weather Reports


time (UTC)temp
C
wind
direction
speed
KPH
gust
KPH
rain 1hr
cm
rain 24hr
cm
rain mn
cm
humidity
%
barometer
mb
20260504042517 9 203 1.6 3.2 0.00 0.00 0.00 64 999.6
20260504041517 10 0.0 6.4 0.00 0.00 0.00 63 999.7
20260504040537 10 0.0 3.2 0.00 0.00 0.00 61 999.7
20260504035518 10 0.0 3.2 0.00 0.00 0.00 60 999.7
20260504034518 10 0.0 3.2 0.00 0.00 0.00 59 999.7
20260504033538 10 0.0 1.6 0.00 0.00 0.00 59 999.7
20260504032538 10 0.0 1.6 0.00 0.00 0.00 58 999.7
20260504031518 10 0.0 1.6 0.00 0.00 0.00 58 999.8
20260504030518 10 0.0 3.2 0.00 0.00 0.00 57 999.9
20260504025518 10 203 1.6 8.0 0.00 0.00 0.00 56 1000.0
20260504024518 11 0.0 3.2 0.00 0.00 0.00 55 1000.1
20260504023518 11 0.0 4.8 0.00 0.00 0.00 54 1000.1
20260504022518 11 0.0 3.2 0.00 0.00 0.00 53 1000.1
20260504021538 11 0.0 3.2 0.00 0.00 0.00 51 1000.2
20260504020518 11 0.0 1.6 0.00 0.00 0.00 49 1000.2
20260504015518 11 0.0 3.2 0.00 0.00 0.00 48 1000.1
20260504014518 11 0.0 1.6 0.00 0.00 0.00 46 999.9
20260504013518 11 0.0 1.6 0.00 0.00 0.00 47 999.9
20260504012518 11 0.0 1.6 0.00 0.00 0.00 45 999.9
20260504011518 11 0.0 0.0 0.00 0.00 0.00 45 1000.0
20260504010518 11 0.0 1.6 0.00 0.00 0.00 44 999.8
20260504005518 11 0.0 0.0 0.00 0.00 0.00 43 999.7
20260504004518 11 203 1.6 6.4 0.00 0.00 0.00 43 999.8
20260504003518 12 135 1.6 4.8 0.00 0.00 0.00 42 999.7
20260504002537 12 113 1.6 4.8 0.00 0.00 0.00 41 999.6
20260504001518 12 0.0 3.2 0.00 0.00 0.00 39 999.5
20260504000538 12 0.0 3.2 0.00 0.00 0.00 37 999.4
20260503235538 12 90 1.6 4.8 0.00 0.00 0.00 36 999.4
20260503234518 13 113 1.6 4.8 0.00 0.00 0.00 36 999.5
20260503233518 13 68 1.6 4.8 0.00 0.00 0.00 36 999.5
20260503232517 13 0.0 1.6 0.00 0.00 0.00 35 999.3
20260503231518 13 0.0 1.6 0.00 0.00 0.00 35 999.2
20260503230538 13 45 1.6 6.4 0.00 0.00 0.00 33 999.2
20260503225558 13 0.0 1.6 0.00 0.00 0.00 32 999.2
20260503224517 13 0.0 1.6 0.00 0.00 0.00 31 999.2
20260503223517 13 23 1.6 6.4 0.00 0.00 0.00 28 999.2
20260503222517 14 23 1.6 4.8 0.00 0.00 0.00 27 999.3
20260503221517 14 0.0 3.2 0.00 0.00 0.00 27 999.3
20260503220639 15 45 1.6 6.4 0.00 0.00 0.00 26 999.4
20260503215517 14 0.0 3.2 0.00 0.00 0.00 29 999.3
20260503214517 14 68 1.6 4.8 0.00 0.00 0.00 29 999.4
20260503213517 14 45 1.6 4.8 0.00 0.00 0.00 27 999.5
20260503212517 15 23 1.6 4.8 0.00 0.00 0.00 27 999.5
20260503211517 15 0.0 4.8 0.00 0.00 0.00 28 999.5
20260503210517 15 23 1.6 3.2 0.00 0.00 0.00 29 999.5
20260503205517 14 23 1.6 8.0 0.00 0.00 0.00 27 999.6
20260503204517 15 68 1.6 6.4 0.00 0.00 0.00 28 999.7
20260503203517 14 338 3.2 11.3 0.00 0.00 0.00 27 999.8
20260503202517 15 23 3.2 8.0 0.00 0.00 0.00 26 1000.0
20260503201517 15 0 1.6 6.4 0.00 0.00 0.00 27 999.9
20260503200517 14 0.0 3.2 0.00 0.00 0.00 29 1000.0
20260503195517 15 248 1.6 11.3 0.00 0.00 0.00 30 1000.2
20260503194517 15 0.0 3.2 0.00 0.00 0.00 30 1000.4
20260503193517 15 158 1.6 8.0 0.00 0.00 0.00 27 1000.7
20260503192537 15 23 1.6 6.4 0.00 0.00 0.00 27 1000.7
20260503191517 15 203 1.6 6.4 0.00 0.00 0.00 31 1000.9
20260503190517 13 158 1.6 8.0 0.00 0.00 0.00 29 1000.9
20260503185517 14 225 3.2 11.3 0.00 0.00 0.00 32 1001.1
20260503184517 13 135 1.6 4.8 0.00 0.00 0.00 30 1001.3
20260503183517 13 23 1.6 8.0 0.00 0.00 0.00 30 1001.3
20260503182517 14 23 1.6 4.8 0.00 0.00 0.00 32 1001.5
20260503181517 14 158 1.6 6.4 0.00 0.00 0.00 32 1001.6
20260503180517 13 23 4.8 16.1 0.00 0.00 0.00 29 1001.7
20260503175517 13 45 1.6 9.7 0.00 0.00 0.00 33 1002.0
20260503174517 14 90 1.6 4.8 0.00 0.00 0.00 32 1002.0
20260503173517 13 180 1.6 11.3 0.00 0.00 0.00 36 1002.2
20260503172517 14 203 3.2 8.0 0.00 0.00 0.00 32 1002.2
20260503171517 13 180 3.2 9.7 0.00 0.00 0.00 33 1002.5
20260503170517 13 158 1.6 3.2 0.00 0.00 0.00 34 1002.6
20260503150517 12 23 1.6 6.4 0.00 0.00 0.00 46 1004.2
20260503130516 8 0.0 4.8 0.00 0.00 0.00 52 1005.3
20260503110516 4 0.0 4.8 0.00 0.00 0.00 70 1005.1
20260503081518 4 0.0 0.0 0.00 0.00 0.00 68 1005.2
20260503080518 4 0.0 0.0 0.00 0.00 0.00 67 1005.2
20260503072518 5 0.0 1.6 0.00 0.00 0.00 65 1005.2
20260503071518 5 0.0 0.0 0.00 0.00 0.00 65 1005.3
20260503070518 4 0.0 4.8 0.00 0.00 0.00 66 1005.3
20260503054518 5 0.0 1.6 0.00 0.00 0.00 62 1005.6
20260503053518 5 0.0 1.6 0.00 0.00 0.00 62 1005.6
20260503052518 5 0.0 4.8 0.00 0.00 0.00 62 1005.7
20260503051518 5 0.0 1.6 0.00 0.00 0.00 62 1005.8
20260503050538 5 0.0 1.6 0.00 0.00 0.00 62 1005.8
20260503045517 5 0.0 3.2 0.00 0.00 0.00 62 1005.9
20260503044517 5 0.0 1.6 0.00 0.00 0.00 62 1005.9
20260503043518 5 0.0 0.0 0.00 0.00 0.00 61 1006.0